KAZSTSAT

Last updated on Mon Sep 07 2026 00:02:46 GMT+0000 (Coordinated Universal Time)

1 43783U 18099AB 26249.61775080 .00000719 00000+0 62243-4 0 9996 2 43783 97.4215 277.8494 0012427 133.4075 226.8186 15.00007582423511
UTC large
Height (km)
Speed (km/s)
/
Latitude / Longitude
Inclination (degrees)
Orbital Period (minutes)
Azimuth
Elevation
Range (km)
Doppler Factor

Next 0 passes for location: London (51.5072 / 0.1276)

No passes found over London.
KAZSTSAT